SCP
0 0 0 0 0 0 -0 -0 -0 0 0 0 0 1 1 1 0 0 -0 -0 -0 0 0 1 0 0 0 0 0 0 0 0 0 0 0 0 0 0 0 0 0 0 0 0
0 0 0 0 0 0 0 -0 0 0 0 0 0 1 1 0 -0 -0 0 0 0 0 0 0 0 0 0 0 0 0 0 0 0 0 0 0 0 0 0 0 0 0 0 0
0 0 0 0 0 0 0 0 0 0 0 0 0 1 1 1 -0 0 0 0 0 0 0 0 0 0 0 0 0 0 0 0 0 0 0 0 0 0 0 0 0 0 0 0
0 0 0 0 0 0 0 0 0 0 0 0 0 1 0 0 -0 0 -0 0 0 1 1 0 0 0 0 0 0 0 0 0 0 0 0 0 0 0 0 0 0 0 0 0
0 0 0 0 0 0 0 0 0 -0 0 0 0 1 0 0 0 0 0 1 1 1 1 0 0 0 0 0 0 0 0 0 0 0 0 0 0 0 0 0 0 0 0 0
0 0 0 0 0 0 0 0 -0 0 0 0 1 0 1 0 0 0 0 1 1 1 0 0 0 0 0 0 0 0 0 0 0 0 0 0 0 0 0 0 0 0 0 0
0 0 0 0 0 0 0 0 -0 -0 0 0 0 0 1 0 0 0 1 1 0 0 0 0 0 0 0 0 0 0 0 0 0 0 0 0 0 0 0 0 0 0 0 0
0 0 0 0 0 0 0 0 0 0 0 0 0 0 0 0 0 -0 0 -0 -0 0 0 0 0 0 0 0 0 0 0 0 0 0 0 0 0 0 0 0 0 0 0 0
0 0 0 0 0 0 0 0 0 0 0 0 0 1 1 0 -0 0 0 0 0 0 0 0 0 0 0 0 0 0 0 0 0 0 0 0 0 0 0 0 0 0 0 0
0 0 0 0 0 0 0 0 0 0 0 0 1 1 1 1 1 1 0 0 0 -0 0 0 0 0 0 0 0 0 0 0 0 0 0 0 0 0 0 0 0 0 0 0
0 0 0 -0 0 0 0 0 0 0 0 0 1 1 1 1 1 1 0 0 0 0 0 0 0 0 0 0 0 0 0 0 0 0 0 0 0 0 0 0 0 0 0 0
0 1 2 2 1 0 0 0 0 0 0 0 0 0 0 1 1 1 0 0 0 0 0 0 0 0 0 0 0 0 0 0 0 0 0 0 0 0 0 0 0 0 -0 -0
0 1 1 1 1 0 0 0 0 0 1 1 0 0 0 1 1 0 0 0 0 0 0 0 0 0 0 0 0 0 0 0 0 0 0 0 0 0 0 0 0 0 0 0
1 1 0 0 1 1 1 1 1 1 1 1 0 0 1 1 1 1 0 0 0 0 0 0 0 0 0 0 0 0 0 0 0 0 0 0 0 0 0 0 0 0 0 0
0 0 0 1 0 0 0 0 0 1 1 1 1 1 1 0 0 -0 0 0 0 0 0 0 0 0 0 0 0 0 0 0 0 0 0 0 0 0 0 0 0 0 0 0
0 0 0 0 0 -0 0 0 1 1 1 1 1 1 0 0 0 0 0 0 0 0 0 0 0 0 0 0 0 0 0 0 0 0 0 0 0 0 0 0 0 0 0 0
0 0 0 0 0 -0 -0 0 1 1 1 1 1 1 1 0 0 0 0 0 0 0 0 0 0 0 0 0 0 0 0 0 0 0 0 -0 0 0 0 0 0 0 0 0
0 0 1 0 -0 -0 -0 1 1 1 1 1 1 0 0 0 0 0 0 0 0 0 0 0 0 0 0 0 0 0 0 0 0 0 0 0 0 0 0 0 0 0 0 0
0 0 0 0 0 1 2 2 1 1 1 0 0 0 0 0 0 0 0 0 0 0 0 0 0 0 0 0 0 0 0 -0 0 0 0 0 0 0 0 0 0 0 0 0
0 0 0 0 1 1 0 0 0 0 0 0 0 0 0 0 0 0 0 0 0 0 0 0 0 0 0 0 0 -0 -0 -0 0 0 0 0 0 0 0 0 0 0 0 0
0 0 0 0 0 0 0 0 -0 0 0 0 0 0 0 0 0 0 0 0 0 0 0 0 0 0 0 0 0 -0 -0 -0 0 0 0 0 0 0 0 0 0 0 0 0
0 1 0 0 0 0 -0 0 0 0 0 0 0 0 0 0 0 0 0 0 0 0 0 0 0 0 0 0 -0 -0 -0 0 0 0 0 0 0 0 0 0 0 0 0 0
1 0 0 0 0 0 0 0 0 0 -0 -0 -0 -0 -0 0 0 0 0 0 0 0 0 0 0 0 0 0 -0 -0 0 0 0 0 0 0 0 0 0 0 0 0 0 0
1 0 0 0 0 0 0 0 -0 -0 -0 -0 -0 -0 -0 0 0 0 0 0 0 0 -0 0 0 0 0 0 -0 0 0 0 0 0 0 0 0 0 0 0 0 0 0 0
0 0 -0 -0 -0 -0 -0 -0 -0 -0 -0 -0 -0 0 0 0 0 0 0 0 0 0 0 0 0 0 0 0 -0 0 0 0 0 0 0 0 0 0 0 0 0 0 0 0
0 0 -0 -0 -0 0 0 0 0 0 0 0 0 0 0 0 0 0 0 0 0 -0 -0 0 0 0 0 0 0 0 0 0 0 0 0 0 0 0 0 0 0 0 0 0
-0 -0 -0 -0 -0 -0 -0 -0 -0 -0 -0 0 0 0 0 0 0 0 0 0 0 -0 -0 0 0 0 0 0 0 0 0 0 0 0 0 0 0 0 0 0 0 0 0 0
Wind_Speed_500mb
36 40 29 41 40 43 48 44 40 34 32 24 32 34 41 49 47 50 50 48 46 43 44 42 39 37 32 28 25 19 16 12 11 11 9 10 13 15 16 17 16 16 18 19
39 29 38 25 33 36 46 47 41 42 41 35 32 37 41 51 53 54 53 49 49 49 47 46 42 37 34 29 23 19 17 16 14 14 17 17 16 16 17 18 18 18 19 20
29 34 34 41 44 37 40 42 34 37 37 27 21 35 44 52 52 56 55 55 54 52 48 44 40 37 33 27 22 20 19 18 17 19 18 16 16 17 17 16 16 17 16 15
26 27 38 37 33 35 41 40 38 37 36 6 9 27 37 50 54 55 55 57 54 51 46 42 40 36 32 25 23 21 20 19 18 19 18 17 16 15 14 11 10 10 10 11
23 25 31 31 34 27 35 36 35 38 34 22 14 27 34 46 53 54 57 57 55 50 46 45 43 38 32 26 23 21 20 19 17 18 17 17 15 13 9 6 4 5 5 8
24 26 31 33 36 31 31 32 36 40 32 24 33 23 22 51 52 55 57 56 55 52 51 47 41 35 31 27 23 22 19 19 18 19 18 17 12 9 5 3 3 2 6 9
26 24 25 28 17 41 31 23 44 54 36 38 32 31 60 59 55 56 59 59 54 53 49 44 39 33 29 26 23 23 22 20 21 21 19 14 11 8 4 3 2 6 9 8
27 34 35 12 19 14 8 28 23 7 25 32 35 23 66 67 64 63 60 59 56 53 48 43 37 33 29 27 27 26 25 22 21 18 12 10 11 7 4 3 2 8 9 12
8 12 34 18 21 24 25 27 32 27 13 29 35 45 65 69 68 66 62 61 55 52 49 41 36 31 30 30 29 29 26 22 19 17 15 13 11 7 2 9 8 10 11 12
7 22 5 59 33 31 38 29 23 24 20 31 44 58 64 67 68 70 60 58 55 52 47 41 35 30 29 30 30 30 26 22 19 14 13 11 6 2 1 5 10 13 14 14
24 25 35 53 21 25 32 30 21 17 18 37 48 60 64 64 66 61 62 57 53 49 44 39 35 31 32 32 32 28 23 20 18 14 14 9 9 4 2 7 12 15 14 15
22 25 19 25 23 32 33 28 22 19 34 42 59 66 67 68 62 58 60 53 49 46 41 38 35 33 32 33 32 27 23 21 18 16 9 7 5 7 10 10 15 17 15 16
30 30 30 32 36 26 26 23 22 30 42 53 56 63 64 69 74 59 51 50 49 45 40 38 35 34 33 32 30 28 22 21 19 14 8 6 6 7 10 15 18 22 24 23
17 29 36 31 31 28 27 17 16 31 44 55 61 61 68 73 73 60 52 48 45 42 38 36 35 34 33 32 31 29 25 27 15 10 6 7 9 10 11 13 15 20 31 34
43 41 38 29 26 26 20 19 30 42 47 56 60 61 57 68 80 67 54 47 43 38 35 35 34 33 34 32 30 29 23 16 11 8 7 9 10 9 13 17 20 29 29 34
42 39 28 24 23 17 15 21 34 42 52 58 59 57 53 53 56 57 50 44 43 37 35 34 33 35 34 33 31 26 20 16 11 8 9 12 11 13 17 21 27 28 32 33
37 35 30 22 20 17 19 25 35 44 50 53 57 59 60 60 55 53 46 39 34 30 32 33 33 34 34 32 29 20 14 16 2 9 8 9 12 16 21 28 29 36 36 34
37 24 23 20 15 18 24 29 37 44 50 53 57 67 66 48 49 54 50 45 41 35 30 31 32 32 30 29 24 16 13 12 11 9 9 13 16 23 27 29 31 36 33 32
42 25 16 11 19 27 32 39 46 41 55 58 65 57 56 54 49 45 40 38 40 36 34 33 37 32 28 26 21 13 12 10 10 12 16 18 22 22 30 32 29 34 31 31
38 26 17 28 31 40 48 51 53 53 53 48 53 54 51 50 46 46 45 40 31 29 36 34 37 27 21 19 20 13 13 11 14 16 16 18 29 24 32 23 25 27 29 29
47 38 34 40 45 51 54 63 67 64 53 46 45 48 49 46 43 46 39 35 32 31 33 35 28 21 21 19 14 11 11 15 16 20 26 24 20 29 29 29 26 26 28 26
60 52 52 46 43 39 41 50 55 58 60 52 45 43 46 52 47 39 32 30 30 38 32 29 25 26 18 19 11 10 14 16 21 24 23 16 20 23 26 23 25 26 24 23
60 59 56 57 50 43 39 43 49 52 52 45 43 44 40 37 35 36 32 29 29 43 29 24 25 22 20 14 8 15 17 20 23 21 16 16 18 20 21 22 23 23 22 20
64 69 64 65 58 49 48 40 41 42 42 40 38 37 35 35 31 28 24 33 32 40 27 28 21 22 16 11 13 18 20 18 17 20 18 21 17 18 20 22 24 21 19 20
71 72 63 71 68 56 51 46 44 42 39 35 35 33 31 27 27 29 28 33 32 32 22 21 22 17 14 15 17 12 12 14 16 22 22 17 17 17 21 22 20 19 18 14
72 68 75 74 57 50 47 43 41 39 37 35 31 30 29 30 29 26 27 30 30 33 26 24 19 13 11 20 10 13 14 16 15 12 13 13 14 17 19 20 19 17 16 15
52 62 58 50 52 50 44 40 49 45 37 37 33 31 31 29 29 27 28 28 29 23 18 20 18 12 11 14 14 14 16 16 20 16 14 14 15 17 18 17 15 14 13 13
Wind_Direction_500mb
256 268 254 241 214 227 243 250 259 263 256 248 187 176 169 161 161 165 162 164 162 160 156 152 149 148 149 147 145 144 131 125 118 112 105 103 93 84 77 70 55 54 49 42
249 251 254 250 253 244 223 241 249 263 272 282 98 128 166 168 167 173 168 165 162 158 156 152 152 154 152 148 146 145 138 132 127 126 118 109 95 85 84 74 64 59 52 40
244 245 244 243 239 239 250 246 230 245 250 264 239 159 177 171 172 175 168 167 163 162 158 156 156 158 152 150 146 138 138 137 135 127 120 111 103 98 91 81 70 60 50 40
248 241 243 250 244 223 249 244 241 246 256 271 237 153 174 174 176 175 168 165 163 163 160 159 158 155 150 150 147 144 144 142 141 136 129 124 117 108 94 85 77 64 45 41
253 239 255 242 247 244 225 234 242 242 239 138 169 146 164 179 178 173 169 166 163 163 161 160 159 155 151 146 146 145 147 146 146 145 137 133 133 131 132 105 74 32 6 4
260 276 251 243 245 208 232 251 245 234 238 154 154 186 174 176 173 168 166 164 162 161 158 158 156 153 151 152 151 151 151 147 144 147 149 148 152 146 146 185 301 46 338 324
228 250 260 277 298 231 202 246 221 229 214 164 185 218 157 170 167 165 163 162 161 159 159 158 157 156 154 154 154 153 152 147 146 149 150 158 156 164 170 266 5 354 338 309
235 246 250 143 328 258 240 248 266 22 243 173 192 227 155 161 161 162 162 160 160 159 158 158 159 160 157 156 159 154 152 154 157 159 152 172 168 178 190 324 293 347 351 1
299 210 340 330 279 298 24 350 345 346 281 146 172 155 158 158 159 161 163 161 161 160 157 159 159 163 159 163 158 155 155 161 165 170 175 181 175 185 274 351 4 349 337 335
271 261 215 299 323 338 342 307 314 316 278 172 171 164 161 158 159 159 163 164 162 161 159 158 160 158 165 159 159 157 162 167 176 174 177 183 162 203 32 343 330 322 321 319
256 258 269 270 354 356 334 306 293 272 203 185 165 162 161 159 158 161 162 164 163 163 162 159 157 162 163 162 161 165 170 171 172 174 145 157 155 160 15 326 329 321 299 300
267 56 1 349 339 326 322 310 263 212 172 171 168 164 162 158 155 159 160 162 162 164 162 161 161 164 162 164 165 166 170 171 168 169 163 178 252 290 285 308 343 358 25 18
278 330 313 305 305 315 310 286 249 190 171 160 164 167 160 159 154 157 164 162 168 163 163 160 163 164 167 170 170 168 168 169 172 169 190 230 275 297 299 288 313 315 312 316
294 297 295 296 306 306 301 269 182 181 172 167 165 167 160 156 145 154 161 167 164 158 161 162 163 167 170 170 171 166 170 174 170 186 212 258 284 287 287 294 314 316 332 322
276 276 279 297 297 289 279 235 191 176 169 164 165 159 165 154 149 155 157 162 156 156 161 162 163 169 171 170 167 166 166 176 181 202 239 268 283 276 291 300 303 305 304 317
265 269 281 283 286 270 244 205 191 172 169 167 162 156 156 148 140 148 151 153 150 161 166 164 168 171 170 168 165 169 181 195 206 233 250 271 281 291 298 307 305 311 308 314
266 272 270 260 261 231 214 190 179 173 171 164 158 151 148 145 145 142 145 145 153 160 163 165 169 172 169 167 167 177 189 197 293 234 242 264 298 302 302 307 311 308 317 304
262 267 282 262 236 198 180 169 161 163 160 150 154 148 149 142 152 151 148 157 157 154 162 165 171 171 168 171 173 181 190 208 220 234 263 278 288 302 300 302 307 317 315 312
246 241 245 216 177 159 143 135 144 153 154 155 157 152 143 157 156 146 142 147 149 156 166 168 175 167 169 173 171 178 189 209 236 265 278 283 288 307 307 311 311 313 308 310
219 201 219 185 161 151 146 149 155 153 148 155 152 149 151 151 147 148 150 149 156 168 160 171 164 166 171 179 172 184 209 235 264 279 286 295 305 296 314 317 319 308 308 310
202 181 163 154 150 154 156 157 153 149 150 157 159 152 150 146 146 149 143 151 154 171 155 173 168 168 171 176 184 196 231 268 276 289 289 284 292 312 312 309 306 307 309 306
185 165 161 162 156 158 161 159 152 146 150 153 154 150 149 148 145 137 150 158 163 160 171 176 178 184 182 176 209 258 282 302 309 302 305 299 305 305 309 306 306 309 304 301
168 160 160 161 156 148 150 151 146 146 144 149 150 148 147 147 150 154 157 169 172 164 171 181 187 192 188 203 242 272 296 295 295 303 307 296 291 297 305 307 306 305 300 297
155 158 150 151 148 141 146 146 147 136 141 142 146 144 146 150 155 161 166 168 183 176 169 183 199 201 208 240 267 278 294 289 296 301 297 308 289 293 301 305 304 301 302 302
150 146 145 142 144 149 145 146 138 138 135 140 142 147 152 159 163 164 175 175 180 177 176 194 188 204 239 258 269 287 293 291 279 296 290 276 283 293 303 305 305 290 303 302
142 149 152 150 152 158 147 146 143 143 144 145 150 153 156 160 163 163 164 173 177 172 185 187 198 215 250 258 234 281 287 279 297 299 267 274 285 302 306 304 299 297 295 301
145 142 140 145 147 154 158 155 150 147 152 154 156 156 154 157 164 164 167 167 171 181 190 206 207 220 243 241 271 272 285 284 266 284 267 274 291 302 307 306 300 295 297 294
Wind_Speed_850mb
36 40 29 41 40 43 48 44 40 34 32 24 32 34 41 49 47 50 50 48 46 43 44 42 39 37 32 28 25 19 16 12 11 11 9 10 13 15 16 17 16 16 18 19
39 29 38 25 33 36 46 47 41 42 41 35 32 37 41 51 53 54 53 49 49 49 47 46 42 37 34 29 23 19 17 16 14 14 17 17 16 16 17 18 18 18 19 20
29 34 34 41 44 37 40 42 34 37 37 27 21 35 44 52 52 56 55 55 54 52 48 44 40 37 33 27 22 20 19 18 17 19 18 16 16 17 17 16 16 17 16 15
26 27 38 37 33 35 41 40 38 37 36 6 9 27 37 50 54 55 55 57 54 51 46 42 40 36 32 25 23 21 20 19 18 19 18 17 16 15 14 11 10 10 10 11
23 25 31 31 34 27 35 36 35 38 34 22 14 27 34 46 53 54 57 57 55 50 46 45 43 38 32 26 23 21 20 19 17 18 17 17 15 13 9 6 4 5 5 8
24 26 31 33 36 31 31 32 36 40 32 24 33 23 22 51 52 55 57 56 55 52 51 47 41 35 31 27 23 22 19 19 18 19 18 17 12 9 5 3 3 2 6 9
26 24 25 28 17 41 31 23 44 54 36 38 32 31 60 59 55 56 59 59 54 53 49 44 39 33 29 26 23 23 22 20 21 21 19 14 11 8 4 3 2 6 9 8
27 34 35 12 19 14 8 28 23 7 25 32 35 23 66 67 64 63 60 59 56 53 48 43 37 33 29 27 27 26 25 22 21 18 12 10 11 7 4 3 2 8 9 12
8 12 34 18 21 24 25 27 32 27 13 29 35 45 65 69 68 66 62 61 55 52 49 41 36 31 30 30 29 29 26 22 19 17 15 13 11 7 2 9 8 10 11 12
7 22 5 59 33 31 38 29 23 24 20 31 44 58 64 67 68 70 60 58 55 52 47 41 35 30 29 30 30 30 26 22 19 14 13 11 6 2 1 5 10 13 14 14
24 25 35 53 21 25 32 30 21 17 18 37 48 60 64 64 66 61 62 57 53 49 44 39 35 31 32 32 32 28 23 20 18 14 14 9 9 4 2 7 12 15 14 15
22 25 19 25 23 32 33 28 22 19 34 42 59 66 67 68 62 58 60 53 49 46 41 38 35 33 32 33 32 27 23 21 18 16 9 7 5 7 10 10 15 17 15 16
30 30 30 32 36 26 26 23 22 30 42 53 56 63 64 69 74 59 51 50 49 45 40 38 35 34 33 32 30 28 22 21 19 14 8 6 6 7 10 15 18 22 24 23
17 29 36 31 31 28 27 17 16 31 44 55 61 61 68 73 73 60 52 48 45 42 38 36 35 34 33 32 31 29 25 27 15 10 6 7 9 10 11 13 15 20 31 34
43 41 38 29 26 26 20 19 30 42 47 56 60 61 57 68 80 67 54 47 43 38 35 35 34 33 34 32 30 29 23 16 11 8 7 9 10 9 13 17 20 29 29 34
42 39 28 24 23 17 15 21 34 42 52 58 59 57 53 53 56 57 50 44 43 37 35 34 33 35 34 33 31 26 20 16 11 8 9 12 11 13 17 21 27 28 32 33
37 35 30 22 20 17 19 25 35 44 50 53 57 59 60 60 55 53 46 39 34 30 32 33 33 34 34 32 29 20 14 16 2 9 8 9 12 16 21 28 29 36 36 34
37 24 23 20 15 18 24 29 37 44 50 53 57 67 66 48 49 54 50 45 41 35 30 31 32 32 30 29 24 16 13 12 11 9 9 13 16 23 27 29 31 36 33 32
42 25 16 11 19 27 32 39 46 41 55 58 65 57 56 54 49 45 40 38 40 36 34 33 37 32 28 26 21 13 12 10 10 12 16 18 22 22 30 32 29 34 31 31
38 26 17 28 31 40 48 51 53 53 53 48 53 54 51 50 46 46 45 40 31 29 36 34 37 27 21 19 20 13 13 11 14 16 16 18 29 24 32 23 25 27 29 29
47 38 34 40 45 51 54 63 67 64 53 46 45 48 49 46 43 46 39 35 32 31 33 35 28 21 21 19 14 11 11 15 16 20 26 24 20 29 29 29 26 26 28 26
60 52 52 46 43 39 41 50 55 58 60 52 45 43 46 52 47 39 32 30 30 38 32 29 25 26 18 19 11 10 14 16 21 24 23 16 20 23 26 23 25 26 24 23
60 59 56 57 50 43 39 43 49 52 52 45 43 44 40 37 35 36 32 29 29 43 29 24 25 22 20 14 8 15 17 20 23 21 16 16 18 20 21 22 23 23 22 20
64 69 64 65 58 49 48 40 41 42 42 40 38 37 35 35 31 28 24 33 32 40 27 28 21 22 16 11 13 18 20 18 17 20 18 21 17 18 20 22 24 21 19 20
71 72 63 71 68 56 51 46 44 42 39 35 35 33 31 27 27 29 28 33 32 32 22 21 22 17 14 15 17 12 12 14 16 22 22 17 17 17 21 22 20 19 18 14
72 68 75 74 57 50 47 43 41 39 37 35 31 30 29 30 29 26 27 30 30 33 26 24 19 13 11 20 10 13 14 16 15 12 13 13 14 17 19 20 19 17 16 15
52 62 58 50 52 50 44 40 49 45 37 37 33 31 31 29 29 27 28 28 29 23 18 20 18 12 11 14 14 14 16 16 20 16 14 14 15 17 18 17 15 14 13 13
Wind_Direction_850mb
256 268 254 241 214 227 243 250 259 263 256 248 187 176 169 161 161 165 162 164 162 160 156 152 149 148 149 147 145 144 131 125 118 112 105 103 93 84 77 70 55 54 49 42
249 251 254 250 253 244 223 241 249 263 272 282 98 128 166 168 167 173 168 165 162 158 156 152 152 154 152 148 146 145 138 132 127 126 118 109 95 85 84 74 64 59 52 40
244 245 244 243 239 239 250 246 230 245 250 264 239 159 177 171 172 175 168 167 163 162 158 156 156 158 152 150 146 138 138 137 135 127 120 111 103 98 91 81 70 60 50 40
248 241 243 250 244 223 249 244 241 246 256 271 237 153 174 174 176 175 168 165 163 163 160 159 158 155 150 150 147 144 144 142 141 136 129 124 117 108 94 85 77 64 45 41
253 239 255 242 247 244 225 234 242 242 239 138 169 146 164 179 178 173 169 166 163 163 161 160 159 155 151 146 146 145 147 146 146 145 137 133 133 131 132 105 74 32 6 4
260 276 251 243 245 208 232 251 245 234 238 154 154 186 174 176 173 168 166 164 162 161 158 158 156 153 151 152 151 151 151 147 144 147 149 148 152 146 146 185 301 46 338 324
228 250 260 277 298 231 202 246 221 229 214 164 185 218 157 170 167 165 163 162 161 159 159 158 157 156 154 154 154 153 152 147 146 149 150 158 156 164 170 266 5 354 338 309
235 246 250 143 328 258 240 248 266 22 243 173 192 227 155 161 161 162 162 160 160 159 158 158 159 160 157 156 159 154 152 154 157 159 152 172 168 178 190 324 293 347 351 1
299 210 340 330 279 298 24 350 345 346 281 146 172 155 158 158 159 161 163 161 161 160 157 159 159 163 159 163 158 155 155 161 165 170 175 181 175 185 274 351 4 349 337 335
271 261 215 299 323 338 342 307 314 316 278 172 171 164 161 158 159 159 163 164 162 161 159 158 160 158 165 159 159 157 162 167 176 174 177 183 162 203 32 343 330 322 321 319
256 258 269 270 354 356 334 306 293 272 203 185 165 162 161 159 158 161 162 164 163 163 162 159 157 162 163 162 161 165 170 171 172 174 145 157 155 160 15 326 329 321 299 300
267 56 1 349 339 326 322 310 263 212 172 171 168 164 162 158 155 159 160 162 162 164 162 161 161 164 162 164 165 166 170 171 168 169 163 178 252 290 285 308 343 358 25 18
278 330 313 305 305 315 310 286 249 190 171 160 164 167 160 159 154 157 164 162 168 163 163 160 163 164 167 170 170 168 168 169 172 169 190 230 275 297 299 288 313 315 312 316
294 297 295 296 306 306 301 269 182 181 172 167 165 167 160 156 145 154 161 167 164 158 161 162 163 167 170 170 171 166 170 174 170 186 212 258 284 287 287 294 314 316 332 322
276 276 279 297 297 289 279 235 191 176 169 164 165 159 165 154 149 155 157 162 156 156 161 162 163 169 171 170 167 166 166 176 181 202 239 268 283 276 291 300 303 305 304 317
265 269 281 283 286 270 244 205 191 172 169 167 162 156 156 148 140 148 151 153 150 161 166 164 168 171 170 168 165 169 181 195 206 233 250 271 281 291 298 307 305 311 308 314
266 272 270 260 261 231 214 190 179 173 171 164 158 151 148 145 145 142 145 145 153 160 163 165 169 172 169 167 167 177 189 197 293 234 242 264 298 302 302 307 311 308 317 304
262 267 282 262 236 198 180 169 161 163 160 150 154 148 149 142 152 151 148 157 157 154 162 165 171 171 168 171 173 181 190 208 220 234 263 278 288 302 300 302 307 317 315 312
246 241 245 216 177 159 143 135 144 153 154 155 157 152 143 157 156 146 142 147 149 156 166 168 175 167 169 173 171 178 189 209 236 265 278 283 288 307 307 311 311 313 308 310
219 201 219 185 161 151 146 149 155 153 148 155 152 149 151 151 147 148 150 149 156 168 160 171 164 166 171 179 172 184 209 235 264 279 286 295 305 296 314 317 319 308 308 310
202 181 163 154 150 154 156 157 153 149 150 157 159 152 150 146 146 149 143 151 154 171 155 173 168 168 171 176 184 196 231 268 276 289 289 284 292 312 312 309 306 307 309 306
185 165 161 162 156 158 161 159 152 146 150 153 154 150 149 148 145 137 150 158 163 160 171 176 178 184 182 176 209 258 282 302 309 302 305 299 305 305 309 306 306 309 304 301
168 160 160 161 156 148 150 151 146 146 144 149 150 148 147 147 150 154 157 169 172 164 171 181 187 192 188 203 242 272 296 295 295 303 307 296 291 297 305 307 306 305 300 297
155 158 150 151 148 141 146 146 147 136 141 142 146 144 146 150 155 161 166 168 183 176 169 183 199 201 208 240 267 278 294 289 296 301 297 308 289 293 301 305 304 301 302 302
150 146 145 142 144 149 145 146 138 138 135 140 142 147 152 159 163 164 175 175 180 177 176 194 188 204 239 258 269 287 293 291 279 296 290 276 283 293 303 305 305 290 303 302
142 149 152 150 152 158 147 146 143 143 144 145 150 153 156 160 163 163 164 173 177 172 185 187 198 215 250 258 234 281 287 279 297 299 267 274 285 302 306 304 299 297 295 301
145 142 140 145 147 154 158 155 150 147 152 154 156 156 154 157 164 164 167 167 171 181 190 206 207 220 243 241 271 272 285 284 266 284 267 274 291 302 307 306 300 295 297 294